map of HEL home
HEL - Airport
Location
City:  Helsinki, Uusimaa (Nyland, Uusimaa), Finland
Name:Vantaa
ICAO:EFHK
IATA:HEL

Details
Type:Airport (Aerodrome, Airfield)
Latitude:6019'02"N (60.317222)
Longitude:2457'48"E (24.963333)
Elevation:179 ft (55 m)
Variation:8.83E (WMM2015 magnetic declination)
0.16 annual change
Runways:3
Longest:11286 × 197 ft (3440 × 60 m), paved

Time
Time Zone:UTC+2 (DST+3)
Local Time:

Weather
METAR:EFHK 232250Z 23008KT 9999 FEW015 M06/M07 Q0981 NOSIG
TAF:EFHK 232031Z 2321/2421 24009KT 9999 FEW012 BKN020
TEMPO 2321/2403 4000 -SHSN BKN014

Related Locations
Nearby:
Farthest:NZTB: 11012 mi / 17722 km
Terra Nova Bay [Mario Zucchelli Station], AQ

Find:

   beyond  
but within

Other Information
Maps:
NOTAMs:
Links:
Sources:

  
flag of Finland   

Sectional Chart

Flight Planning
at skyvector.com

Satellite Image

Google Maps Satellite view

 

Copyright © 2004-2017 Karl L. Swartz. All rights reserved.
The Great Circle Mapper name and logo are trademarks of the Great Circle Mapper.
All other trademarks mentioned herein belong to their respective owners.
Please see credits for attibutions and further copyright information.

  Follow gcmap on Facebook Follow gcmap on Twitter Follow gcmap on Google+ GCmap on LinkedIn

hCard Microformat

Geo Microformat